Tracking 25689 objects as of 7-Jul-2022
HD Live streaming from Space Station
objects crossing your sky now

FENGYUN 1C DEB

Track FENGYUN 1C DEB now!
10-day predictions


NORAD ID: 30611
Int'l Code: 1999-025AMS
Perigee: 400.4 km
Apogee: 564.4 km
Inclination: 98.6 °
Period: 94.1 minutes
Semi major axis: 6853 km
RCS: 0.0108 m2 (small)
Launch date: May 10, 1999
Source: People's Republic of China (PRC)
Launch site: Taiyaun Space Center, China (TSC)

Note: This is SATELLITE DEBRIS
aabbcc
Your satellite tracking list
Your tracking list is empty




NASA's NSSDC Master Catalog

Two Line Element Set (TLE):
1 30611U 99025AMS 22187.77593661  .00022606  00000-0  62233-3 0  9995
2 30611  98.6374  22.1815 0119609  83.3950 278.0885 15.30186750836790
Source of the keplerian elements: AFSPC